Вернуться в каталог

COSMOS 1382

АктивенВоенныеHEO
NORAD 13295·PAYLOAD·🇷🇺 Russia

Запущен Jun 25, 1982 с Plesetsk Cosmodrome

Loading…

Ближайшие Пролёты (ближайшие 24 часа)

TLE

СвежийSource: Space-Track

Эпоха: Sep 14, 2026, 19:41 UTC

1 13295U 82064A   26257.82055490  .00001064  00000-0  00000-0 0  9996
2 13295  62.2192 130.9099 7342326  44.9825 355.0752  2.00557341282358

Отслеживайте COSMOS 1382 в реальном времени с AllMySat

Download on the App Store